852  
ASUS46 KPDT 230725  
RWRPDT  
PENDLETON REGIONAL WEATHER ROUNDUP  
NATIONAL WEATHER SERVICE PENDLETON OREGON  
1100 PM PST TUE JAN 22 2019  
 
NOTE: FAIR INDICATES FEW OR NO CLOUDS BELOW 12,000 FEET WITH NO  
SIGNIFICANT WEATHER AND/OR S TO VISIBILITY
.  
 
# INDICATES UNOFFICIAL STATION AND DATA  
 
WAZ520-230810-  
EAST SLOPES OF WASHINGTON CASCADES  
 
CITY SKY/WX TMP DP RH WIND PRES REMARKS
 
#BULLFROG N/A 32 32 100 CALM N/A  
#EASTON DOT N/A N/A N/A N/A CALM N/A  
#ELK HTS DOT N/A 31 31 100 CALM N/A  
#GLENWOOD N/A 43 40 89 S3 30.17R  
#NELSON 3SW N/A 30 28 92 CALM 30.32F  
#TROUT LAKE 1NE N/A 37 36 96 W7 30.20R  
#TROUT LAKE 1E N/A 38 37 96 CALM 30.15S  

 
 
WAZ521-230810-  
SIMCOE HIGHLANDS  
 
CITY SKY/WX TMP DP RH WIND PRES REMARKS
 
#BICKLETON HS N/A 35 35 100 SW14 29.70R WCI 26  
#SATUS PASS DOT N/A 36 36 100 N18G32 N/A WCI 26  
#CENTERVILLE 1SWN/A 37 34 89 CALM 30.12F  
#GOODNOE HILLS N/A 42 36 79 W2 30.02F  
#LYLE 6NE N/A 39 38 96 S6 30.16F  
#PITT 4SE N/A 38 37 96 CALM 30.19F  

 
 
WAZ026-230810-  
KITTITAS VALLEY  
 
CITY SKY/WX TMP DP RH WIND PRES REMARKS
 
ELLENSBURG AP LGT RAIN 34 32 92 W5 30.04F FOG  
#ELLENSBURG CWU N/A 32 31 96 CALM 30.07R  
#ELLENSBURG 3NE N/A 32 31 96 CALM 28.14R  
#ELLENSBURG 1E N/A 32 31 96 CALM 30.16R  
#KITTITAS 3S N/A 32 31 96 CALM 30.13R  
#MANASTASH RDG N/A 35 34 96 SW3 N/A  
#ROCKY CYN DOT N/A 33 32 96 NW1 N/A  
#RYEGRASS DOT N/A 31 30 96 CALM N/A  
#THORP 6N N/A 32 31 96 CALM 30.19F  

 
 
WAZ027-230810-  
YAKIMA VALLEY  
 
CITY SKY/WX TMP DP RH WIND PRES REMARKS
 
SUNNYSIDE AP CLOUDY 41 38 89 SE9 30.10F  
YAKIMA AIRPORT CLOUDY 33 30 89 SW3 30.10R  
YAKIMA-VAGABOND LGT RAIN SH 33 30 89 CALM 30.07R  
#DONALD 2NE N/A 37 23 56 W10 28.91R  
#GRANDVIEW N/A 42 36 79 S1 30.15F  
#MABTON N/A 43 39 86 S15G25 30.08F WCI 36  
#NACHES 2SW N/A 34 32 92 CALM 30.04F  
#OUTLOOK DOT N/A 42 39 89 CALM 30.05S  
#PARKER DOT N/A 38 33 82 S3 30.07R  
#TERRACE HTS N/A 32 30 92 CALM 30.10R  
#TOPPENISH N/A 40 36 85 CALM 30.03S  
#I82 S UMTANUM RN/A 34 30 85 SW3 N/A  
#UNION GAP DOT N/A 33 31 92 CALM N/A  
#W YAKIMA N/A 34 31 89 N3 30.13S  
#WHITE SWAN 5E N/A 33 32 96 CALM 30.14R  
#ZILLAH DOT N/A 41 36 82 NE7 N/A  

 
 
WAZ028-230810-  
LOWER COLUMBIA BASIN...WASHINGTON  
 
CITY SKY/WX TMP DP RH WIND PRES REMARKS
 
HANFORD FOG 33 32 96 N6 30.08 VSB 1/2  
PASCO PTCLDY 44 41 89 S13 30.13F WCI 38  
PROSSER AWOS N/A 43 41 93 S21G29 30.13F WCI 34  
RICHLAND AWOS CLOUDY 45 38 76 S13 30.13F WCI 39  
#BASIN CITY 5SW N/A 41 37 86 SW5 30.11F  
#BENTON CITY N/A 40 36 85 CALM 30.02F  
#CONNELL 5N N/A 39 39 100 SW6 30.14F  
#CONNELL 5NW N/A 40 39 96 S12 30.08F WCI 33  
#ELTOPIA 6NW N/A 40 40 100 CALM 29.07F  
#KAHLOTUS N/A 40 38 92 W12 30.13F WCI 33  
#KENNEWICK 3S N/A 43 39 86 S5 30.13F  
#PROSSER DOT N/A 41 37 86 S10 30.10F  
#SAGEMOOR 2W N/A 39 37 92 S2 30.01F  
#TOUCHET 2S N/A 47 39 74 S17G26 30.11F WCI 40  

 
 
WAZ029-230810-  
FOOTHILLS OF THE BLUES...WASHINGTON  
 
CITY SKY/WX TMP DP RH WIND PRES REMARKS
 
WALLA WALLA AP LGT RAIN 47 37 68 S20 30.13F WCI 40  
#CLYDE 6NW N/A 41 38 89 S12 30.14F WCI 34  
#DELANEY DOT N/A 45 39 79 S18G26 30.13F WCI 37  
#LOWDEN 2SE N/A 44 43 96 S10 30.11F  
#PLEASANT VIEW 1N/A 39 38 96 S20G26 30.16F WCI 29  
#PRESCOTT N/A 44 41 89 S1 30.14F  
#WHITMAN COLLEGEN/A 46 40 79 S9 30.21F  
#WAITSBURG 6SSE N/A 43 37 79 SE7 29.98F  
#WALLA WALLA 5E N/A 46 41 83 S22 N/A WCI 38  
#WHITMAN MISSIONN/A 47 41 79 S2 30.17F  

 
 
WAZ030-230810-  
BLUE MOUNTAINS...WASHINGTON  
 
CITY SKY/WX TMP DP RH WIND PRES REMARKS
 
#DIXIE 5SE N/A 34 32 92 S15 30.02F WCI 24  

 
 
ORZ009-041-WAZ024-230810-  
COLUMBIA RIVER GORGE  
 
CITY SKY/WX TMP DP RH WIND PRES REMARKS
 
HOOD RIVER AP RAIN 41 41 100 CALM 30.15R  
THE DALLES AP CLOUDY 39 38 96 SW3 30.16F FOG  
#ARLINGTON AIRPON/A 39 37 92 W3 30.15F  
#CELILO DOT N/A 41 37 86 W2 N/A  
#LYLE N/A 41 39 93 CALM 30.18F  
#MARYHILL N/A 38 N/A N/A N1 N/A  
#MURDOCK N/A 40 39 96 CALM 30.13F  
#RUFUS DOT N/A 40 39 96 W7 N/A  
#SMITHVILLE N/A 40 38 92 CALM 30.16F  
 

 
 
ORZ510-230810-  
NORTH CENTRAL OREGON  
 
CITY SKY/WX TMP DP RH WIND PRES REMARKS
 
#ANTELOPE N/A 43 35 73 SW16G24 30.13F WCI 35  
#COW CYN RST AREN/A 42 34 73 SW9 N/A  
#DUFUR N/A 37 36 96 CALM 30.13F  
#DUFUR 9E N/A 44 38 79 SW33G43 30.20F WCI 33  
#GRASS VALLEY 1SN/A 43 38 82 SW25G33 30.25F WCI 33  
#KENT DOT N/A 40 28 62 SW22 N/A WCI 30  
#MORO SCHOOL N/A 46 42 86 S8 30.10F  
#SHANIKO 5WSW N/A 38 33 82 S16 N/A WCI 29  
#WAPANITIA AIRPON/A 47 38 71 SW12 30.20F WCI 42  
#WASCO DOT N/A 39 39 100 S8 N/A  
#WASCO 5NE N/A 38 35 89 CALM 30.16F  

 
 
ORZ511-230810-  
CENTRAL OREGON  
 
CITY SKY/WX TMP DP RH WIND PRES REMARKS
 
BEND AIRPORT MOCLDY 41 34 76 SW16 30.24R WCI 33  
MADRAS AIRPORT CLOUDY 45 34 65 S21G31 30.21S WCI 37  
PRINEVILLE AP CLOUDY 32 32 100 S3 30.25R  
REDMOND AIRPORT CLOUDY 34 31 89 E6 30.24R  
#ASHWOOD SCHOOL N/A 46 34 63 SE10 30.14F  
#BEND 1SW N/A 38 34 85 SW3 N/A  
#BEND-AWBREY N/A 40 35 82 S9 30.33R  
#BEND-KIM LN N/A 36 32 85 E2 30.29R  
#CULVER N/A 45 35 68 W8G28 29.96F  
#CULVER 8W N/A 45 33 63 SE12 30.18F WCI 39  
#LAKE BILLY CHINN/A 45 N/A N/A W7 30.24F  
#POWELL BUTTE N/A 42 30 62 SW12 30.16R WCI 35  
#PRINEVILLE N/A 33 30 89 CALM 30.46R  
#PRINEVILLE 3N N/A 34 31 89 SE3 30.34R  
#WARM SPRINGS N/A 33 30 89 CALM 30.07F  
 

 
 
 
ORZ509-230810-  
EAST SLOPES OF OREGON CASCADES  
 
CITY SKY/WX TMP DP RH WIND PRES REMARKS
 
SISTERS AWOS N/A 45 36 70 SW31G41 30.14F WCI 35  
#BLUE BOX PASS N/A 37 N/A N/A S3 N/A  
#CAMP SHERMAN N/A 39 32 76 CALM 30.32F  
#LA PINE 4NW N/A 35 30 82 CALM 30.37S  
#LAVA BUTTE DOT N/A 36 29 75 SE5 N/A  
#SISTERS ODOT N/A 44 33 65 SW8 N/A  
#SISTERS 3N N/A 42 32 67 NE7 30.20S  
#TUMALO 3W N/A 34 30 85 CALM 30.20R  
#WANOGA BUTTE D N/A 31 29 92 NW20G30 N/A WCI 19  
 

 
 
ORZ044-230810-  
LOWER COLUMBIA BASIN...OREGON  
 
CITY SKY/WX TMP DP RH WIND PRES REMARKS
 
HERMISTON PTCLDY 42 39 89 SE5 30.12F  
#BOARDMAN SCHOOLN/A 39 38 96 CALM 30.13F  
#BOARDMAN 8SW N/A 39 37 92 W2 30.14F  
#ECHO 8SW N/A 49 49 100 CALM 30.12F  
#I-84 EX 198 DOTN/A 45 36 70 NE16 N/A WCI 38  
#IONE SCHOOL N/A 50 35 56 S15G26 30.17F  
#UMATILLA N/A 40 37 89 CALM 30.08F  

 
 
ORZ507-230810-  
NORTHERN FOOTHILLS OF THE BLUES  
 
CITY SKY/WX TMP DP RH WIND PRES REMARKS
 
PENDLETON AIRPT CLOUDY 44 35 70 SW10 30.14F  
#ADAMS 3WNW N/A 39 37 92 CALM 30.19F  
#ATHENA N/A 40 36 85 SE7 30.22F  
#CAYUSE N/A 46 38 73 S16G26 30.18F WCI 39  
#HELIX SCHOOL N/A 40 38 92 N16 30.19F WCI 32  
#HELIX 3N N/A 39 37 92 S17G24 30.12F WCI 30  
#HOLDMAN 5SE N/A 42 38 86 S5 30.12F  
#HOLDMAN 6E N/A 39 39 100 SE15 29.98F WCI 31  
#M-FREEWATER 5SEN/A 43 37 79 E13 30.14F WCI 36  
#PENDLETON DNTN N/A 46 36 68 SW10 30.14F  
#PDT AQUATIC CTRN/A 46 37 71 S8 30.11F  
#PDT SUNRIDGE N/A 45 38 76 SE15 30.16F WCI 38  
#PENDLETON 6SE N/A 46 38 73 SW12 30.15F WCI 40  
#PENDLETON 7NW N/A 42 36 79 S6 N/A  
#TUTUILLA N/A 42 37 82 S12 30.22F WCI 35  
 

 
 
ORZ508-230810-  
SOUTHERN FOOTHILLS OF THE BLUES  
 
CITY SKY/WX TMP DP RH WIND PRES REMARKS
 
#AJAX N/A 45 30 55 CALM 30.24F  
#HEPPNER EOC N/A 42 34 73 SE7 30.14F  
#HEPPNER 4NE N/A 40 34 79 SW3 30.23F  
#LEXINGTON 2SE N/A 46 36 68 S16 30.12F WCI 39  
#OLEX 4N N/A 46 39 76 SW13 30.12F WCI 40  
#RUGGS 5NE N/A 39 32 76 S20 30.27F WCI 29  
#RUGGS 2SW N/A 40 33 76 S13G26 30.25F WCI 32  
 

 
 
ORZ502-503-230810-  
BLUE MOUNTAINS  
 
CITY SKY/WX TMP DP RH WIND PRES REMARKS
 
MEACHAM N/A 32 28 85 CALM 30.16F  
#BATTLE MTN DOT N/A 30 29 96 SE24G32 N/A WCI 16  
#GRANITE N/A 26 19 74 NW1 29.85S  
#HARDMAN 10S N/A 28 28 100 CALM 30.48F  
#LADD CYN SMT N/A 27 26 96 SE24G32 N/A WCI 12  
#LADD CREEK ODOTN/A 29 28 96 S8 N/A  
#N POWDER DOT N/A 28 27 96 SE10 N/A  
#SUMMERVILLE 5NWN/A 28 28 100 S8 26.86F  
#TOLLGATE N/A 27 26 96 SW5 30.14F  
#TROY SCHOOL N/A 33 31 92 CALM 30.16F  
#UKIAH N/A 30 28 92 CALM 30.28F  
#WESTON 4E N/A 34 33 96 SE14 30.22F WCI 25  

 
 
ORZ505-230810-  
JOHN DAY BASIN  
 
CITY SKY/WX TMP DP RH WIND PRES REMARKS
 
JOHN DAY CLOUDY 32 30 92 E5 30.27R  
#DAYVILLE SCHOOLN/A 33 30 89 CALM 30.20F  
#MITCHELL 8NW N/A 40 32 73 W7 30.34R  
#MONUMENT HS N/A 31 28 88 CALM 30.21F  

 
 
ORZ506-230810-  
OCHOCO AND JOHN DAY HIGHLANDS  
 
CITY SKY/WX TMP DP RH WIND PRES REMARKS
 
#HORSE RIDGE DO N/A 39 28 64 SW16 N/A WCI 30  
#IZEE 6NW N/A 29 28 96 CALM N/A  
#PAULINA ODOT N/A 30 28 92 CALM N/A  
#PRAIRIE CITY N/A 29 25 85 CALM 30.42F  
#SENECA 9NW N/A 28 27 96 CALM 30.44F  

 
 
ORZ049-230810-  
GRANDE RONDE VALLEY  
 
CITY SKY/WX TMP DP RH WIND PRES REMARKS
 
LA GRANDE LGT SNOW 32 27 82 S22 30.25F WCI 19  
#COVE SCHOOL N/A 31 30 96 CALM 30.23F  
#COVE 6NW N/A 31 29 92 S6 30.36F  
#ELGIN 3N N/A 30 27 88 S14 30.14S WCI 19  
#ELGIN 1E N/A 32 27 82 S13 N/A WCI 22  
#ISLAND CITY 4N N/A 46 45 96 CALM 30.23R  
#LADD CYN DOT N/A 32 29 89 S25G40 N/A WCI 19  

 
 
ORZ050-230810-  
WALLOWA COUNTY  
 
CITY SKY/WX TMP DP RH WIND PRES REMARKS
 
#ENTERPRISE HS N/A 28 26 92 CALM 30.24F  
#IMNAHA 10S N/A 34 26 72 SW8 30.21R  
#JOSEPH N/A 28 21 75 CALM 30.33F  
#JOSEPH 3N N/A 27 26 96 CALM 30.19S  
#JOSEPH 3W N/A 26 25 96 CALM 29.93F  
#LOSTINE N/A 25 23 92 CALM 30.16F  
#LOSTINE 3SE N/A 26 25 96 CALM 30.23F  
#MT HOWARD 8000 N/A 26 23 88 W15G33 30.04S WCI 14  
#PROMISE 1S N/A 28 26 92 S7 30.37F  
 

 
 
CLICK HERE TO GO TO PREVIOUS BULLETINS.

The Nexlab OR Page
The Nexlab WA Page Main Text Page